This is the latest recevied weather packets stored in our database for station/object PD2BVG. If no packets are shown the sender has not sent any weather packets the latest 10 day(s).
| Time | Temp. | Humidity | Pressure | Rain* | Wind** | Luminosity | Snow |
|---|---|---|---|---|---|---|---|
| 1787587890 | 21.11° C | 57% | 1017.6 hPa | 0 mm | - | 41 W/m² | - |
| 1787587829 | 21.11° C | 57% | 1017.5 hPa | 0 mm | - | 41 W/m² | - |
| 1787587769 | 21.67° C | 57% | 1017.6 hPa | 0 mm | - | 41 W/m² | - |
| 1787587709 | 21.67° C | 57% | 1017.6 hPa | 0 mm | - | 92 W/m² | - |
| 1787587649 | 21.67° C | 56% | 1017.5 hPa | 0 mm | - | 92 W/m² | - |
| 1787587590 | 21.67° C | 57% | 1017.7 hPa | 0 mm | - | 44 W/m² | - |
| 1787587529 | 21.67° C | 57% | 1017.7 hPa | 0 mm | - | 44 W/m² | - |
| 1787587469 | 21.67° C | 57% | 1017.6 hPa | 0 mm | - | 42 W/m² | - |
| 1787587409 | 21.67° C | 57% | 1017.6 hPa | 0 mm | - | 42 W/m² | - |
| 1787587351 | 21.67° C | 57% | 1017.7 hPa | 0 mm | - | 42 W/m² | - |
| 1787587290 | 21.67° C | 57% | 1017.6 hPa | 0 mm | - | 42 W/m² | - |
| 1787587229 | 21.11° C | 57% | 1017.6 hPa | 0 mm | - | 42 W/m² | - |
| 1787587169 | 21.11° C | 57% | 1017.6 hPa | 0 mm | - | 42 W/m² | - |
| 1787587110 | 21.67° C | 56% | 1017.6 hPa | 0 mm | - | 44 W/m² | - |
| 1787587048 | 21.67° C | 56% | 1017.7 hPa | 0 mm | - | 44 W/m² | - |
| 1787586986 | 21.67° C | 56% | 1017.7 hPa | 0 mm | - | 44 W/m² | - |
| 1787586922 | 21.67° C | 56% | 1017.7 hPa | 0 mm | - | 44 W/m² | - |
| 1787586863 | 21.67° C | 56% | 1017.7 hPa | 0 mm | - | 165 W/m² | - |
| 1787586799 | 21.67° C | 56% | 1017.7 hPa | 0 mm | - | 44 W/m² | - |
| 1787586736 | 21.67° C | 56% | 1017.8 hPa | 0 mm | - | 44 W/m² | - |
| 1787586668 | 21.67° C | 57% | 1017.8 hPa | 0 mm | - | 46 W/m² | - |
| 1787586608 | 21.67° C | 57% | 1017.8 hPa | 0 mm | - | 49 W/m² | - |
| 1787586549 | 21.67° C | 56% | 1017.7 hPa | 0 mm | - | 46 W/m² | - |
| 1787586488 | 21.67° C | 56% | 1017.7 hPa | 0 mm | - | 58 W/m² | - |
| 1787586424 | 21.67° C | 56% | 1017.8 hPa | 0 mm | - | 48 W/m² | - |
* Rain latest hour (hover to see other rain measurements)
** Current wind speed in m/s (hover to see current wind gust speed)